SCP
1 1 1 1 0 0 0 0 0 0 0 0 0 1 1 1 1 1 1 1 1 1 1 1 0 0 0 0 0 0 0 1 1 0 0 0 0 0 0 0 0 0 0
1 1 1 1 0 0 0 0 0 0 0 0 0 1 1 1 1 1 1 1 1 1 1 0 0 0 0 0 0 0 0 1 1 1 0 0 0 0 0 0 0 0 0
1 1 1 0 0 0 0 0 0 0 0 0 0 1 1 1 1 1 0 0 0 0 0 0 0 0 0 0 0 0 0 1 1 1 0 0 0 0 0 0 0 0 0
1 0 0 0 0 0 0 0 0 0 0 0 0 0 0 1 1 0 0 0 0 0 0 0 0 0 0 0 0 0 0 1 0 0 0 0 0 0 0 0 0 0 0
1 0 1 1 1 0 0 0 0 0 0 0 0 0 0 0 1 0 0 0 0 0 0 0 0 0 0 0 0 0 0 0 0 0 0 0 0 0 0 0 0 0 0
1 1 1 1 1 1 1 1 1 0 0 0 0 0 0 0 0 0 0 0 0 0 0 0 0 0 0 0 0 0 0 0 0 0 0 0 0 0 0 0 0 0 0
1 1 1 1 1 1 1 1 1 0 0 0 0 0 0 0 0 0 0 0 0 0 0 0 0 0 0 0 0 0 1 1 0 0 0 0 0 0 0 0 0 0 0
1 1 1 1 1 1 1 1 1 1 0 0 0 0 0 0 0 0 0 0 0 0 0 0 0 0 0 0 0 1 1 1 0 0 0 0 0 0 0 0 0 0 0
2 2 2 1 1 1 1 0 1 1 0 0 0 0 0 0 0 0 0 0 0 0 0 0 0 0 0 0 1 1 1 0 0 0 0 0 0 0 0 0 0 0 0
2 2 2 1 1 1 0 0 0 0 0 0 0 0 0 0 0 0 0 0 0 0 0 0 0 0 0 0 1 1 1 0 0 0 0 0 0 0 0 0 0 0 0
2 2 2 2 1 1 0 0 0 0 0 0 0 0 0 0 0 0 0 0 0 0 0 0 0 0 0 0 1 1 0 0 0 0 0 1 1 1 1 0 0 0 0
2 2 2 2 1 1 0 0 0 0 0 0 0 0 0 0 0 0 0 0 0 0 0 0 0 0 0 0 0 0 0 0 0 0 0 1 1 1 1 0 0 0 0
1 2 1 1 1 1 1 0 0 0 0 0 0 0 0 0 0 0 0 0 0 0 0 0 0 0 0 0 0 0 0 0 0 0 0 1 1 1 1 0 0 0 0
2 2 1 1 1 1 1 0 0 0 0 0 0 0 1 1 0 0 0 0 0 0 0 0 0 0 0 0 0 0 0 0 0 0 0 0 1 1 1 0 0 0 0
2 2 2 1 1 1 1 0 0 0 0 0 0 1 1 1 0 0 0 0 0 0 0 0 0 0 0 0 0 0 0 0 0 0 0 0 1 1 0 0 0 0 0
3 3 3 2 2 2 1 1 1 0 0 0 0 1 1 1 0 0 0 0 0 0 0 0 0 0 0 0 0 0 0 0 0 0 0 0 1 1 1 1 1 1 1
3 3 4 4 3 2 2 1 1 1 1 1 1 1 1 1 1 1 0 0 0 0 0 0 0 0 0 0 0 0 0 0 0 0 0 0 1 1 1 1 1 1 1
4 4 4 4 4 3 2 2 2 1 1 1 1 1 1 1 1 1 1 0 0 0 0 0 0 0 0 0 0 0 0 0 0 0 0 0 1 1 1 1 1 1 1
4 4 4 4 4 3 3 3 2 1 1 1 1 1 1 1 1 1 1 1 0 0 0 0 0 0 0 0 0 0 0 0 0 0 0 0 0 1 1 1 1 1 1
4 4 5 4 4 3 3 3 2 1 1 1 1 1 1 1 1 1 1 1 1 1 0 0 0 0 0 0 0 0 0 0 0 0 0 0 1 1 1 1 1 1 1
4 5 5 5 4 3 3 2 2 1 1 1 1 1 1 1 1 1 1 1 1 1 1 0 0 0 0 0 0 0 0 0 0 0 0 0 0 1 1 1 1 1 1
4 5 5 5 4 4 3 2 2 1 1 1 1 1 1 1 1 2 2 1 1 1 1 1 1 1 0 0 0 0 0 0 0 0 0 0 0 1 1 1 1 1 1
5 5 5 5 5 4 3 2 2 1 1 1 1 1 1 1 2 2 2 2 2 1 1 1 1 1 0 0 0 0 0 0 0 0 0 0 0 0 1 1 1 1 1
6 5 5 5 5 4 3 2 2 1 1 1 1 1 1 1 2 2 2 2 1 1 1 1 1 1 0 0 0 0 0 0 0 0 0 0 0 0 0 1 1 1 1
7 6 5 5 5 4 3 2 2 2 2 1 1 1 1 1 2 2 2 1 1 1 1 1 1 0 0 0 0 0 0 0 0 0 0 0 0 0 0 0 0 1 1
6 6 5 5 5 4 3 2 2 2 2 1 1 1 1 1 2 2 2 1 1 1 1 1 0 0 0 0 0 0 0 0 0 0 0 0 0 0 0 0 0 0 0
Wind_Speed
3 5 12 14 15 16 16 17 17 17 18 18 18 18 18 18 18 18 18 17 17 17 17 17 18 18 18 18 18 18 18 18 17 17 17 16 16 16 16 16 15 11 16
7 7 13 14 15 16 16 16 16 16 17 17 17 17 18 18 17 17 17 17 17 17 17 17 17 17 17 18 18 18 18 17 17 17 16 15 15 15 15 15 14 10 15
9 8 11 14 15 15 16 16 16 16 16 17 17 17 17 17 17 17 17 17 17 16 16 16 16 16 16 16 16 16 16 17 17 17 15 8 11 15 15 15 15 15 15
11 7 10 15 15 15 15 15 15 15 16 16 16 16 16 16 16 16 16 16 16 16 15 15 15 15 15 14 14 14 14 15 15 15 7 6 8 14 15 15 15 15 14
9 7 11 16 15 15 15 15 15 15 15 15 16 16 16 16 16 16 16 15 15 14 14 14 14 13 13 13 12 11 11 12 13 11 7 6 6 13 14 14 14 14 14
8 7 11 16 15 15 15 14 14 14 15 15 15 15 15 15 15 15 15 15 14 13 13 13 13 12 11 11 10 10 11 12 11 7 6 5 5 11 13 13 13 13 13
9 7 10 16 15 15 14 14 14 14 14 14 14 14 14 14 14 14 14 14 13 13 12 12 11 10 9 9 9 9 10 12 8 6 5 5 6 11 12 12 12 12 12
11 8 9 15 15 14 14 14 14 14 14 14 14 14 14 13 13 13 13 13 12 12 11 10 9 8 7 7 8 9 11 11 10 8 5 5 9 11 12 12 11 12 11
10 8 6 7 10 14 14 14 13 13 13 13 13 13 13 13 12 12 12 12 12 11 10 9 8 7 6 6 6 7 9 12 7 5 7 4 9 11 11 11 11 11 11
8 8 7 6 6 6 8 13 13 13 13 13 13 13 12 12 12 12 10 10 11 10 9 8 6 5 4 3 4 6 9 10 5 5 4 6 11 11 11 11 11 10 10
9 7 7 7 6 6 6 10 10 12 12 11 10 12 9 4 5 6 8 10 10 9 7 6 5 3 2 2 3 5 6 3 5 4 3 9 12 11 11 10 10 10 10
10 9 7 7 7 6 6 5 3 4 5 4 4 5 3 3 3 5 7 9 8 7 6 4 3 1 0 1 1 3 2 4 4 4 4 11 12 12 11 10 10 9 9
12 10 9 8 7 6 5 5 2 2 3 3 4 4 3 3 2 2 2 3 3 4 1 1 1 1 1 1 0 1 3 3 3 3 5 11 11 12 11 11 10 10 9
11 11 10 9 8 7 6 5 4 3 3 3 4 5 4 2 3 2 2 2 1 1 1 1 1 2 2 1 1 2 3 3 3 2 5 12 11 11 11 11 11 10 9
11 10 10 10 9 8 6 5 5 4 4 4 4 5 5 4 4 3 2 2 2 2 2 2 2 2 1 1 1 3 4 5 5 4 4 12 12 11 12 12 11 11 10
11 11 9 9 9 8 6 5 5 5 4 4 4 5 6 4 4 4 3 3 3 3 3 2 2 2 1 1 1 2 4 4 5 5 4 7 12 12 12 12 12 12 11
12 11 9 9 8 8 7 6 5 5 5 4 4 5 5 5 5 4 3 3 3 3 3 2 1 1 1 1 1 1 3 4 5 6 5 4 6 11 13 13 13 13 13
12 11 10 10 8 7 6 5 4 4 5 4 4 4 5 6 6 4 3 3 3 2 2 2 1 1 1 1 1 1 1 2 4 5 5 5 5 5 9 14 14 13 14
13 12 10 9 9 7 6 4 4 4 4 4 4 4 5 5 5 4 3 3 3 2 2 2 2 2 1 1 2 2 2 2 4 5 5 6 6 6 5 9 14 14 15
11 10 10 9 8 7 5 3 3 3 3 3 4 4 5 4 5 4 3 3 3 2 2 2 2 1 2 2 2 2 2 3 3 4 5 5 6 7 7 7 6 9 15
10 10 10 9 8 6 4 4 3 3 3 3 3 5 5 5 5 5 3 3 3 3 3 3 2 2 1 1 1 2 3 3 3 3 3 3 5 6 6 7 5 5 5
12 11 11 10 9 8 5 4 3 3 3 3 3 4 6 6 5 5 5 3 3 3 3 3 2 2 1 1 2 1 2 4 3 3 2 3 4 3 5 7 6 6 5
13 13 11 10 9 8 6 4 2 2 1 1 3 3 5 5 5 4 5 4 4 4 3 3 3 3 2 2 2 3 2 3 3 3 2 2 2 2 3 3 5 5 6
14 12 11 10 9 8 8 6 6 5 4 5 4 4 4 5 5 5 5 5 4 3 4 4 4 3 3 2 2 2 3 3 2 3 3 2 2 2 3 3 4 4 5
13 12 10 10 9 8 8 8 7 5 4 3 3 4 4 4 5 5 5 4 4 4 4 4 3 3 3 3 3 2 2 2 2 2 3 3 2 2 2 2 2 3 4
10 10 10 10 9 9 9 8 8 8 6 5 4 4 4 3 3 4 4 4 4 4 4 4 4 4 3 3 3 3 3 2 3 3 3 3 3 2 1 1 2 2 2
Wind_Direction
119 117 110 106 103 100 99 98 98 98 97 96 97 96 96 97 99 100 100 101 101 100 100 101 101 102 103 104 105 106 107 107 106 107 107 108 109 110 108 106 104 103 106
136 125 115 110 107 105 104 101 100 100 99 99 99 99 99 99 100 100 101 100 101 101 101 101 102 103 104 105 107 108 109 107 105 105 104 106 108 109 108 107 108 110 109
128 123 118 114 110 108 106 104 104 103 102 102 101 102 101 101 101 101 101 100 101 102 102 103 103 103 104 106 107 109 109 108 106 103 99 94 103 108 109 109 110 110 110
128 125 123 118 115 113 111 108 107 107 105 104 104 104 104 103 103 103 103 103 102 103 104 105 105 105 105 106 107 109 111 111 110 105 97 94 102 108 109 109 110 110 110
122 124 129 123 120 117 115 113 112 110 108 107 107 107 107 107 106 106 107 107 106 106 107 107 108 107 106 105 106 109 112 111 109 102 93 87 95 112 112 112 112 112 112
120 124 130 126 123 121 120 118 116 114 113 111 110 110 110 109 109 110 110 109 109 109 110 110 110 108 105 103 101 103 109 112 109 102 98 96 99 113 115 114 114 114 113
125 125 129 128 126 125 123 121 120 118 117 115 115 113 112 112 112 112 112 112 113 113 114 113 113 110 107 100 96 98 111 115 113 110 106 102 110 116 117 117 117 118 116
130 127 129 131 130 128 127 126 125 123 122 121 119 117 116 115 116 116 117 118 118 118 117 116 116 113 106 94 88 96 109 113 118 120 113 113 122 121 121 123 123 123 122
129 126 124 131 131 133 131 130 130 128 127 125 124 122 121 121 121 120 121 122 122 122 121 121 120 114 103 89 85 99 113 114 118 128 129 125 128 128 127 128 127 128 128
133 134 132 127 127 129 132 136 136 135 133 132 131 131 129 128 127 125 123 127 128 128 128 127 125 118 104 86 84 98 117 122 127 128 129 139 137 136 134 135 134 134 134
142 144 144 142 140 138 140 142 140 140 140 138 138 139 131 118 120 126 133 134 135 137 137 138 140 134 100 57 70 96 110 121 130 134 144 148 146 144 142 142 141 141 142
156 160 158 156 156 155 149 134 137 141 140 138 140 138 131 136 143 140 147 145 145 147 151 160 168 170 11 19 41 82 112 127 130 144 156 156 155 153 151 152 152 151 151
162 162 164 165 165 162 147 149 151 141 147 154 159 156 145 141 140 129 133 142 145 154 154 194 244 297 307 313 175 134 140 140 147 157 163 164 162 161 161 162 163 163 163
163 166 167 169 169 166 157 160 159 158 167 173 174 165 151 148 150 151 152 159 167 170 185 224 257 272 279 270 198 165 150 151 154 156 173 172 172 171 172 174 175 174 175
165 167 168 169 170 167 162 171 168 172 180 180 172 169 162 159 164 167 174 183 195 187 189 210 233 245 250 270 172 158 156 157 162 169 178 181 181 182 183 184 184 185 186
166 167 165 164 164 162 165 172 171 174 177 173 173 173 166 165 166 167 171 182 194 194 193 198 209 207 209 209 178 168 174 166 175 176 183 189 191 192 195 194 194 195 197
165 163 160 160 160 160 161 167 166 170 170 173 176 173 169 167 168 169 172 184 199 197 189 189 203 172 201 234 240 192 179 187 185 186 187 193 199 203 203 204 204 205 206
161 162 165 165 162 160 158 157 155 162 164 175 175 172 172 173 172 167 173 191 194 177 177 176 176 159 219 236 242 241 210 199 201 200 197 198 200 206 212 212 212 212 213
164 165 167 161 164 164 159 154 151 154 166 174 172 173 174 174 170 166 177 195 185 169 184 200 178 169 196 235 237 233 234 226 217 213 208 207 208 208 209 217 219 219 221
165 165 165 163 167 161 151 140 134 142 165 171 176 183 179 177 175 168 179 194 179 166 184 193 183 187 195 218 256 269 259 246 232 224 218 212 212 214 211 214 217 227 229
168 167 167 168 172 163 158 159 158 174 181 184 191 191 188 186 181 174 182 185 175 176 188 183 177 194 219 184 65 324 310 280 250 240 227 213 213 213 208 212 212 218 234
176 175 172 174 175 175 176 171 167 165 181 189 193 194 193 190 188 186 180 187 188 184 192 191 176 174 230 172 150 118 327 327 308 261 243 221 217 212 218 220 214 216 228
181 181 180 178 178 179 174 159 148 129 138 187 200 204 204 197 195 194 190 189 196 188 195 201 188 178 207 238 176 158 175 244 296 309 278 246 227 217 228 221 218 222 226
185 182 177 176 179 182 176 174 175 180 193 207 202 200 204 202 200 200 197 195 196 196 199 209 198 188 184 225 241 209 192 179 191 296 311 290 257 237 228 230 226 221 222
180 178 178 177 181 185 186 184 184 194 203 203 196 198 202 206 206 204 199 196 197 199 206 213 205 200 193 202 211 216 223 212 193 197 271 295 301 263 228 227 231 225 226
173 176 178 181 188 188 189 187 190 195 198 197 201 200 205 204 206 207 200 199 203 203 206 210 212 212 212 212 214 204 195 199 208 199 230 258 270 275 270 244 231 228 226